DW9313 Weather Reports


time (UTC)temp
F
wind
direction
speed
knots
gust
knots
rain 1hr
in
rain 24hr
in
rain mn
in
humidity
%
barometer
mb
20260903174310 64 287 4.3 8.7 0.00 0.00 0.00 88 1012.2
20260903173810 64 290 2.6 7.8 0.00 0.00 0.00 88 1012.3
20260903173312 64 303 2.6 7.0 0.00 0.00 0.00 88 1012.1
20260903172811 64 299 3.5 12.2 0.00 0.00 0.00 89 1012.1
20260903172311 64 295 5.2 10.4 0.00 0.00 0.00 89 1012.5
20260903171812 64 311 3.5 10.4 0.00 0.00 0.00 89 1012.4
20260903171312 64 295 4.3 8.7 0.00 0.00 0.00 89 1012.2
20260903165813 65 308 4.3 12.2 0.00 0.00 0.00 88 1012.2
20260903164312 65 299 5.2 13.0 0.00 0.00 0.00 88 1012.3
20260903163810 65 308 5.2 10.4 0.00 0.00 0.00 88 1012.4
20260903163311 65 304 5.2 12.2 0.00 0.00 0.00 88 1012.4
20260903162811 65 305 3.5 10.4 0.00 0.00 0.00 88 1012.2
20260903162310 65 307 3.5 11.3 0.00 0.00 0.00 87 1012.2
20260903161311 66 288 4.3 10.4 0.00 0.00 0.00 86 1012.4
20260903160811 66 302 1.7 7.0 0.00 0.00 0.00 86 1012.4
20260903160311 66 310 4.3 10.4 0.00 0.00 0.00 85 1012.7
20260903155811 67 293 5.2 8.7 0.00 0.00 0.00 84 1012.7
20260903155311 67 305 3.5 10.4 0.00 0.00 0.00 85 1012.9
20260903154313 68 285 4.3 12.2 0.00 0.00 0.00 84 1012.8
20260903153812 68 259 5.2 10.4 0.00 0.00 0.00 84 1013.0
20260903153311 68 302 4.3 8.7 0.00 0.00 0.00 83 1012.9
20260903152812 68 312 3.5 8.7 0.00 0.00 0.00 83 1012.8
20260903151311 69 325 2.6 10.4 0.00 0.00 0.00 82 1013.0
20260903150812 70 304 5.2 11.3 0.00 0.00 0.00 82 1013.0
20260903150312 70 304 4.3 10.4 0.00 0.00 0.00 82 1013.1
20260903145812 69 293 3.5 8.7 0.00 0.00 0.00 83 1013.1
20260903145311 69 299 3.5 7.0 0.00 0.00 0.00 83 1013.2
20260903144812 69 306 1.7 7.8 0.00 0.00 0.00 83 1013.2
20260903144313 69 310 5.2 10.4 0.00 0.00 0.00 84 1013.2
20260903143812 68 293 5.2 8.7 0.00 0.00 0.00 84 1013.4
20260903142812 68 312 3.5 10.4 0.00 0.00 0.00 85 1013.3
20260903142313 68 303 5.2 13.0 0.00 0.00 0.00 84 1013.5
20260903141813 68 312 4.3 8.7 0.00 0.00 0.00 84 1013.7
20260903141312 69 297 6.1 13.0 0.00 0.00 0.00 83 1013.5
20260903140811 69 321 5.2 11.3 0.00 0.00 0.00 81 1013.3
20260903140313 70 294 4.3 10.4 0.00 0.00 0.00 82 1013.2
20260903135812 69 295 3.5 7.8 0.00 0.00 0.00 84 1013.4
20260903135314 69 302 5.2 11.3 0.00 0.00 0.00 84 1013.7
20260903134812 68 307 6.1 11.3 0.00 0.00 0.00 84 1013.7
20260903134312 68 278 2.6 5.2 0.00 0.00 0.00 85 1013.4
20260903133813 68 298 5.2 12.2 0.00 0.00 0.00 85 1013.4
20260903133313 68 309 4.3 11.3 0.00 0.00 0.00 85 1013.5
20260903132312 68 297 6.1 12.2 0.00 0.00 0.00 84 1013.7
20260903131813 69 300 5.2 10.4 0.00 0.00 0.00 84 1013.6
20260903131314 69 296 5.2 10.4 0.00 0.00 0.00 84 1013.6
20260903130813 69 291 4.3 12.2 0.00 0.00 0.00 85 1013.4
20260903130313 68 323 4.3 10.4 0.00 0.00 0.00 85 1013.3
20260903125814 68 316 5.2 10.4 0.00 0.00 0.00 85 1013.4
20260903125312 68 283 4.3 10.4 0.00 0.00 0.00 85 1013.4
20260903124813 68 280 3.5 11.3 0.00 0.00 0.00 86 1013.5
20260903124315 68 312 4.3 7.0 0.00 0.00 0.00 86 1013.5
20260903123812 68 297 2.6 7.8 0.00 0.00 0.00 86 1013.7
20260903123313 68 301 5.2 10.4 0.00 0.00 0.00 85 1013.8
20260903122815 68 284 4.3 10.4 0.00 0.00 0.00 84 1013.8
20260903122313 69 303 2.6 10.4 0.00 0.00 0.00 84 1013.9
20260903121813 69 282 2.6 7.0 0.00 0.00 0.00 84 1013.7
20260903120815 69 277 2.6 7.0 0.00 0.00 0.00 86 1013.8
20260903120314 69 303 4.3 10.4 0.00 0.00 0.00 87 1013.7
20260903115313 68 300 4.3 7.8 0.00 0.00 0.00 88 1014.1
20260903114813 68 305 5.2 8.7 0.00 0.00 0.00 87 1014.1
20260903113813 68 326 2.6 7.0 0.00 0.00 0.00 88 1014.2
20260903113314 67 322 3.5 7.0 0.00 0.00 0.00 88 1014.0
20260903112813 68 294 2.6 7.8 0.00 0.00 0.00 88 1014.2
20260903111813 67 292 2.6 7.0 0.00 0.00 0.00 88 1014.3
20260903111314 68 286 3.5 10.4 0.00 0.00 0.00 87 1014.3
20260903110813 68 295 4.3 7.8 0.00 0.00 0.00 87 1014.4
20260903110314 68 288 5.2 10.4 0.00 0.00 0.00 87 1014.2
20260903105814 67 283 3.5 6.1 0.00 0.00 0.00 88 1014.2
20260903105314 67 300 2.6 5.2 0.00 0.00 0.00 88 1014.2
20260903104814 67 313 2.6 6.1 0.00 0.00 0.00 88 1014.2
20260903104315 67 301 2.6 7.0 0.00 0.00 0.00 88 1014.1
20260903103816 67 277 3.5 6.1 0.00 0.00 0.00 87 1014.3
20260903103315 68 302 1.7 5.2 0.00 0.00 0.00 87 1014.0
20260903102814 68 307 1.7 5.2 0.00 0.00 0.00 86 1013.9
20260903102314 68 305 1.7 6.1 0.00 0.00 0.00 85 1013.9
20260903101314 68 181 0.0 4.3 0.00 0.00 0.00 85 1014.0
20260903100814 68 296 1.7 4.3 0.00 0.00 0.00 84 1014.1
20260903100314 68 310 0.9 4.3 0.00 0.00 0.00 84 1014.1
20260903095813 68 297 1.7 5.2 0.00 0.00 0.00 83 1014.2
20260903094814 68 338 1.7 7.0 0.00 0.00 0.00 85 1014.3
20260903094314 68 284 2.6 5.2 0.00 0.00 0.00 84 1014.2
20260903093314 68 288 1.7 5.2 0.00 0.00 0.00 88 1014.3
20260903092815 67 296 2.6 7.0 0.00 0.00 0.00 88 1014.6
20260903091315 66 301 2.6 6.1 0.00 0.00 0.00 90 1014.5
20260903090814 65 315 2.6 6.1 0.00 0.00 0.00 90 1014.7
20260903090315 65 297 3.5 7.8 0.00 0.00 0.00 90 1014.6
20260903085816 65 293 2.6 7.8 0.00 0.00 0.00 90 1014.5
20260903085315 65 317 2.6 6.1 0.00 0.00 0.00 90 1014.7
20260903084814 65 311 1.7 6.1 0.00 0.00 0.00 90 1014.7
20260903084314 65 295 3.5 6.1 0.00 0.00 0.00 90 1014.8
20260903083815 65 299 2.6 5.2 0.00 0.00 0.00 91 1014.7
20260903083315 64 325 1.7 5.2 0.00 0.00 0.00 91 1014.6
20260903082815 64 307 2.6 4.3 0.00 0.00 0.00 92 1014.6
20260903082314 64 298 1.7 5.2 0.00 0.00 0.00 92 1014.6
20260903081315 64 313 1.7 6.1 0.00 0.00 0.00 92 1014.6
20260903080816 64 308 1.7 5.2 0.00 0.00 0.00 92 1014.6
20260903080316 64 304 1.7 5.2 0.00 0.00 0.00 92 1014.7
20260903075815 63 299 2.6 6.1 0.00 0.00 0.00 92 1014.7
20260903075315 63 316 1.7 5.2 0.00 0.00 0.00 93 1014.6
20260903074815 63 300 1.7 5.2 0.00 0.00 0.00 93 1014.5
20260903073815 63 267 0.9 5.2 0.00 0.00 0.00 93 1014.6
20260903073316 63 302 2.6 6.1 0.00 0.00 0.00 93 1014.5
20260903072815 63 296 1.7 5.2 0.00 0.00 0.00 93 1014.6
20260903072315 63 295 1.7 4.3 0.00 0.00 0.00 93 1014.7
20260903071815 62 303 0.9 5.2 0.00 0.00 0.00 93 1014.6
20260903071317 62 304 0.9 5.2 0.00 0.00 0.00 93 1014.5
20260903070316 62 292 1.7 5.2 0.00 0.00 0.00 94 1014.3
20260903065816 61 294 1.7 5.2 0.00 0.00 0.00 94 1014.3
20260903065317 61 304 0.9 5.2 0.00 0.00 0.00 95 1014.3
20260903064815 61 298 0.9 5.2 0.00 0.00 0.00 95 1014.3
20260903064316 61 323 1.7 5.2 0.00 0.00 0.00 95 1014.4
20260903063816 61 304 0.0 1.7 0.00 0.00 0.00 95 1014.3
20260903063315 61 325 0.9 2.6 0.00 0.00 0.00 95 1014.3
20260903062816 60 300 0.9 4.3 0.00 0.00 0.00 95 1014.4
20260903062317 60 286 1.7 5.2 0.00 0.00 0.00 95 1014.4
20260903061315 60 285 0.9 2.6 0.00 0.00 0.00 94 1014.3
20260903060816 60 295 1.7 4.3 0.00 0.00 0.00 94 1014.3
20260903060316 60 289 0.9 4.3 0.00 0.01 0.00 94 1014.3
20260903054816 60 316 0.9 1.7 0.00 0.02 0.00 94 1014.1
20260903054316 61 310 0.9 4.3 0.00 0.02 0.00 94 1014.1
20260903053816 61 311 0.9 2.6 0.00 0.02 0.00 94 1013.9
20260903053318 61 292 0.9 2.6 0.00 0.02 0.00 94 1013.8
20260903052816 61 319 0.9 4.3 0.00 0.03 0.00 94 1013.8
20260903052316 61 290 0.9 4.3 0.00 0.04 0.00 94 1013.7
20260903051817 61 304 0.0 4.3 0.00 0.05 0.00 94 1013.7
20260903051317 61 308 0.9 4.3 0.00 0.06 0.00 94 1013.7
20260903050816 60 298 0.0 4.3 0.00 0.06 0.00 94 1013.7
20260903045317 60 330 0.0 0.9 0.00 0.10 0.00 93 1013.5
20260903044816 60 257 0.0 0.9 0.00 0.12 0.00 93 1013.6
20260903044317 61 287 0.0 0.9 0.00 0.13 0.00 93 1013.7
20260903043816 61 355 0.0 0.9 0.00 0.14 0.00 93 1013.8
20260903043317 61 304 0.9 2.6 0.00 0.15 0.00 93 1013.9
20260903042317 61 299 0.9 4.3 0.00 0.16 0.00 93 1013.8
20260903041817 61 280 0.9 5.2 0.00 0.17 0.00 93 1013.8
20260903040817 61 292 1.7 6.1 0.00 0.18 0.00 93 1013.9
20260903040318 61 286 0.9 4.3 0.00 0.18 0.00 93 1013.9
20260903035818 61 281 2.6 5.2 0.00 0.19 0.00 93 1014.0
20260903035318 61 286 0.0 4.3 0.00 0.20 0.00 93 1013.9
20260903034817 61 275 1.7 5.2 0.00 0.21 0.00 93 1014.0
20260903034318 61 295 0.9 4.3 0.00 0.21 0.00 93 1014.0
20260903033818 61 316 1.7 4.3 0.00 0.22 0.00 93 1013.9
20260903033318 61 304 2.6 5.2 0.00 0.23 0.00 93 1013.8
20260903032817 61 305 1.7 5.2 0.00 0.24 0.00 93 1013.8
20260903032319 61 301 1.7 5.2 0.00 0.24 0.00 93 1013.9
20260903031317 61 305 0.9 2.6 0.00 0.24 0.00 93 1013.7
20260903030317 61 303 0.9 4.3 0.00 0.27 0.00 93 1013.7
20260903025818 61 309 1.7 5.2 0.00 0.28 0.00 93 1013.6
20260903025318 61 299 1.7 5.2 0.00 0.28 0.00 93 1013.6
20260903024818 61 300 0.9 5.2 0.00 0.28 0.00 93 1013.5
20260903024317 61 302 0.0 2.6 0.00 0.31 0.00 93 1013.5
20260903023818 61 299 0.0 1.7 0.00 0.31 0.00 92 1013.6
20260903023317 61 296 0.0 2.6 0.00 0.31 0.00 92 1013.6
20260903022818 62 291 0.9 2.6 0.00 0.31 0.00 92 1013.5
20260903022317 62 297 0.9 1.7 0.00 0.32 0.00 91 1013.5
20260903021319 62 306 0.0 0.9 0.00 0.33 0.00 91 1013.6
20260903020818 62 304 0.0 4.3 0.00 0.34 0.00 91 1013.6
20260903020318 62 297 0.9 2.6 0.00 0.35 0.00 92 1013.5
20260903015818 62 292 0.0 0.9 0.00 0.35 0.00 92 1013.4
20260903015317 62 292 0.9 5.2 0.00 0.36 0.00 92 1013.5
20260903014820 62 305 0.0 0.9 0.00 0.36 0.00 92 1013.4
20260903014318 62 257 0.0 0.9 0.00 0.36 0.00 92 1013.5
20260903013818 62 298 0.0 0.9 0.00 0.36 0.00 92 1013.5
20260903013319 62 303 0.9 2.6 0.00 0.37 0.00 92 1013.6
20260903012819 62 300 0.9 2.6 0.00 0.37 0.00 92 1013.6
20260903012320 62 287 0.9 2.6 0.00 0.37 0.00 92 1013.6
20260903011818 62 310 0.9 4.3 0.00 0.38 0.00 92 1013.7
20260903011319 62 310 1.7 5.2 0.00 0.38 0.00 92 1013.7
20260903010818 62 292 2.6 7.0 0.00 0.39 0.00 92 1013.8
20260903005819 62 297 0.9 4.3 0.00 0.39 0.00 93 1013.5
20260903005318 62 298 0.9 2.6 0.00 0.39 0.00 93 1013.4
20260903004820 62 289 0.0 4.3 0.00 0.40 0.00 93 1013.4
20260903004318 62 292 0.0 2.6 0.00 0.40 0.00 93 1013.4
20260903003820 62 255 0.0 2.6 0.00 0.41 0.00 93 1013.4
20260903003318 63 320 0.0 1.7 0.00 0.42 0.00 93 1013.3
20260903002319 63 264 0.0 1.7 0.00 0.43 0.00 93 1013.4
20260903001820 63 284 1.7 5.2 0.00 0.43 0.00 93 1013.3
20260903001319 63 282 1.7 5.2 0.00 0.43 0.00 94 1013.2
20260903000818 63 310 1.7 5.2 0.00 0.44 0.00 94 1013.4
20260903000318 62 301 1.7 4.3 0.00 0.45 0.00 95 1013.4
20260902235820 63 318 0.9 5.2 0.00 0.46 0.00 95 1013.4
20260902235318 63 290 0.9 2.6 0.00 0.46 0.00 96 1013.4
20260902234820 63 301 1.7 5.2 0.00 0.47 0.00 96 1013.3
20260902234319 63 234 0.0 2.6 0.00 0.48 0.00 96 1013.3
20260902233819 63 300 0.9 4.3 0.00 0.48 0.00 96 1013.3
20260902233319 63 281 0.9 2.6 0.00 0.48 0.00 96 1013.3
20260902232819 63 232 0.0 1.7 0.00 0.48 0.00 96 1013.3
20260902232320 62 290 0.9 2.6 0.00 0.48 0.00 96 1013.1
20260902231820 62 325 0.0 1.7 0.00 0.48 0.00 96 1013.2
20260902231319 63 251 0.0 1.7 0.00 0.48 0.00 95 1013.2
20260902230837 63 294 0.0 2.6 0.00 0.48 0.00 95 1013.2
20260902230321 63 319 0.9 4.3 0.00 0.48 0.00 95 1013.1
20260902225319 63 239 0.0 0.9 0.00 0.48 0.48 95 1013.0
20260902224820 63 283 0.0 0.9 0.00 0.48 0.48 95 1013.2
20260902223821 63 217 0.9 2.6 0.00 0.48 0.48 95 1013.2
20260902223320 63 218 0.9 2.6 0.00 0.48 0.48 95 1013.3
20260902221731 63 299 0.9 5.2 0.00 0.48 0.48 95 1013.1
20260902221220 63 291 0.9 5.2 0.00 0.48 0.48 95 1013.1
20260902220731 63 313 1.7 5.2 0.00 0.48 0.48 95 1013.2
20260902220220 63 314 0.9 5.2 0.00 0.48 0.48 95 1012.9
20260902215718 63 9 0.0 4.3 0.00 0.48 0.48 95 1012.9
20260902215219 63 305 1.7 5.2 0.00 0.48 0.48 95 1013.1
20260902214720 63 305 1.7 6.1 0.00 0.48 0.48 95 1013.2
20260902214220 63 306 1.7 5.2 0.00 0.48 0.48 95 1013.1
20260902213719 64 286 1.7 5.2 0.00 0.48 0.48 95 1013.1
20260902213221 64 287 1.7 6.1 0.00 0.48 0.48 95 1013.1
20260902212720 64 296 0.9 5.2 0.00 0.48 0.48 95 1012.8
20260902212219 64 295 1.7 5.2 0.00 0.48 0.48 95 1012.8
20260902211721 64 294 0.9 4.3 0.00 0.48 0.48 95 1012.6
20260902211219 64 289 1.7 7.8 0.00 0.48 0.48 95 1012.5
20260902210719 64 296 1.7 5.2 0.00 0.48 0.48 95 1012.5
20260902210220 64 297 2.6 6.1 0.00 0.48 0.48 96 1012.4
20260902205720 64 303 2.6 6.1 0.00 0.48 0.48 96 1012.5
20260902205219 64 298 0.9 4.3 0.00 0.48 0.48 96 1012.5
20260902204720 64 304 0.9 5.2 0.00 0.48 0.48 96 1012.4
20260902204221 64 272 0.9 5.2 0.00 0.48 0.48 96 1012.3
20260902203721 64 306 0.9 5.2 0.00 0.48 0.48 96 1012.3
20260902203219 64 314 2.6 6.1 0.00 0.48 0.48 96 1012.4
20260902202720 64 292 1.7 6.1 0.00 0.48 0.48 96 1012.3
20260902202220 64 291 2.6 7.0 0.00 0.48 0.48 97 1012.4
20260902201221 64 305 1.7 4.3 0.00 0.48 0.48 97 1012.4
20260902200720 64 302 2.6 7.0 0.00 0.48 0.48 97 1012.4
20260902200221 64 300 1.7 6.1 0.00 0.48 0.48 97 1012.3
20260902195720 64 299 3.5 7.8 0.00 0.48 0.48 97 1012.3
20260902194720 64 319 2.6 8.7 0.00 0.48 0.48 96 1012.1
20260902194220 64 303 4.3 7.0 0.00 0.48 0.48 96 1012.0
20260902193720 64 305 4.3 10.4 0.00 0.48 0.48 96 1011.8
20260902193222 64 308 2.6 7.0 0.00 0.48 0.48 96 1011.7
20260902192721 64 293 3.5 10.4 0.00 0.48 0.48 96 1011.7
20260902191721 65 301 3.5 7.0 0.00 0.48 0.48 95 1011.8
20260902190721 65 316 1.7 7.0 0.00 0.48 0.48 95 1011.9
20260902190222 65 326 1.7 6.1 0.00 0.48 0.48 95 1011.9
20260902185722 65 301 1.7 5.2 0.00 0.48 0.48 95 1011.7
20260902185221 65 306 1.7 8.7 0.00 0.48 0.48 95 1011.8
20260902184720 65 308 2.6 7.8 0.00 0.48 0.48 95 1012.0
20260902183721 65 292 2.6 5.2 0.00 0.48 0.48 95 1011.9
20260902183220 65 320 2.6 5.2 0.00 0.48 0.48 95 1011.7
20260902182721 65 322 2.6 7.8 0.00 0.48 0.48 95 1011.6
20260902181720 65 286 2.6 7.0 0.00 0.48 0.48 95 1011.8
20260902181221 65 289 4.3 7.0 0.00 0.48 0.48 94 1011.9
20260902180722 65 291 2.6 7.8 0.00 0.48 0.48 94 1011.7
20260902175721 65 303 2.6 7.0 0.00 0.48 0.48 94 1011.6
20260902175222 65 297 2.6 7.8 0.00 0.48 0.48 93 1011.5
20260902174721 66 307 2.6 7.0 0.00 0.48 0.48 93 1011.6